Simultaneous Nadir Overpasses (SNOs) Predictions

Prediction of SNOs between GOES-16 and NPP Satellite Orbit:

Table of predicted SNOs for the next 14.0 days since TLE Epoch: 2/1/2025
Index Date Time (GOES-16) GOES-16 Lat,Lon NPP Lat,Lon Distance(km) Time Diff (sec)
1 02/03/2025 06:24:26 -0.01, -75.22 -0.00, -75.12 10.55 80
2 02/05/2025 18:27:38 0.02, -75.26 -0.13, -75.90 72.42 80
3 02/06/2025 18:11:34 0.02, -75.28 0.90, -71.37 446.25 80
4 02/08/2025 06:33:22 -0.03, -75.31 0.25, -76.64 150.88 80
5 02/09/2025 06:11:56 -0.03, -75.33 -0.73, -72.10 367.86 80
6 02/10/2025 18:33:53 0.03, -75.36 -0.41, -77.41 232.26 80
7 02/11/2025 18:17:47 0.03, -75.39 0.58, -72.86 287.48 80
8 02/13/2025 06:39:35 -0.04, -75.44 0.56, -78.14 307.25 80
9 02/14/2025 06:18:10 -0.04, -75.47 -0.43, -73.60 212.84 80
